Regional Weather Roundup
Issued by NWS Charleston, SC

Home | Current Version | Previous Version | Text Only | Print | Product List | Glossary On
Versions: 1 2 3 4 5 6 7 8 9 10 11 12 13 14 15 16 17 18 19 20 21 22 23 24 25 26 27 28 29 30 31 32 33 34 35 36 37 38 39 40 41 42 43 44 45 46 47 48 49 50
000
ASUS42 KCHS 212228
RWRCHS

REGIONAL WEATHER ROUNDUP
NATIONAL WEATHER SERVICE CHARLESTON SC
600 PM EDT FRI JUL 21 2017

NOTE: "FAIR" INDICATES FEW OR NO CLOUDS BELOW 12,000 FEET WITH NO
SIGNIFICANT WEATHER AND/OR OBSTRUCTIONS TO VISIBILITY.

NOT ALL STATIONS ARE QUALITY CONTROLLED. USE DATA WITH CAUTION...
ESPECIALLY DEWPOINT OBSERVATIONS.

SCZ027-030-031-034>040-042>050-212300-
...SOUTHEAST SOUTH CAROLINA...

CITY           SKY/WX    TMP DP  RH WIND       PRES   REMARKS
N CHARLESTON   MOSUNNY   88  72  58 SW12      30.00R HX  94
WATERFRONT PRK   N/A     86  77  74 S13       29.98S HX  97
JOHNS ISLAND   FAIR      86  77  74 S8        30.01R HX  97
PINOPOLIS        N/A     91  77  62 S5        29.90S HX 105
MONCKS CORNER  FAIR      90  73  58 S6        29.99R HX  98
SUMMERVILLE    FAIR      90  73  58 S6        30.00R HX  98
BEAUFORT MCAS  MOSUNNY   88  75  65 S8        29.99S HX  97
BEAUFORT ARPT  FAIR      86  73  66 S13       30.00R HX  93
HILTON HEAD IS SUNNY     86  77  74 S13       30.01S HX  97
WALTERBORO     CLEAR     90  73  58 S12       30.00R HX  98
ALLENDALE      NOT AVBL

...SOUTHERN MIDLANDS AND PEE DEE...

CITY           SKY/WX    TMP DP  RH WIND       PRES   REMARKS
GEORGETOWN     FAIR      86  75  70 S10       30.01R HX  95
KINGSTREE      FAIR      90  68  48 S6        29.98R HX  93
ORANGEBURG     MOSUNNY   92  73  53 S9        29.97S HX 100
BARNWELL       FAIR      95  75  52 SE7       29.97S HX 107
AIKEN          FAIR      91  68  46 NE7       30.02R HX  95
MANNING        FAIR      91  70  49 SW18      29.97R HX  97
COLUMBIA       CLOUDY    87  72  60 CALM      29.97R HX  93
SUMTER         SUNNY     92  73  53 S9        29.94S HX 101
FLORENCE       SUNNY     92  75  57 S7        29.97R HX 103
MYRTLE BEACH   MOSUNNY   86  73  66 S21       30.00S HX  93
N MYRTLE BEACH SUNNY     85  76  74 SW17G23   29.99S HX  94

$$

GAZ063-065-086>088-099>101-113>116-118-119-134>141-150-212300-
...SOUTHEAST GEORGIA...

CITY           SKY/WX    TMP DP  RH WIND       PRES   REMARKS
SAVANNAH ARPT  MOSUNNY   92  73  53 S13       29.99S HX 100
HUNTER AAF     SUNNY     88  75  66 SE13      29.97S HX  97
FORT STEWART   MOSUNNY   91  73  55 SE10      29.97R HX  99
STATESBORO     CLOUDY    83  74  75 CALM      30.00R
SYLVANIA       CLOUDY    84  75  74 CALM      30.00S HX  91
CLAXTON        FAIR      81  76  84 CALM      30.00S

...CSRA...CENTRAL AND FAR SOUTHEAST GEORGIA...

CITY           SKY/WX    TMP DP  RH WIND       PRES   REMARKS
THOMSON        CLOUDY    81  72  75 W3        30.03S
AUGUSTA-BUSH   PTSUNNY   92  75  57 SW15G22   29.96R HX 103
AUGUSTA-DANIEL SUNNY     92  71  50 W6        29.98S HX  98
SWAINSBORO     FAIR      81  77  89 CALM      30.01R
VIDALIA        CLOUDY    82  73  74 SW10      30.03R
EASTMAN        FAIR      81  64  56 CALM      30.02F
HAZLEHURST     HVY RAIN  75  75 100 SW8       30.04R
ALMA           TSTM      80  73  79 NW14G25   30.02R
WAYCROSS       SUNNY     96  75  51 SW8       29.99S HX 108
JESUP          NOT AVBL
BAXLEY         PTSUNNY   81  81 100 NW8G16    30.02R HX  91
BRUNSWICK      SUNNY     88  77  70 SE12      30.02R HX 100
SAINT SIMONS   SUNNY     87  75  67 S14G20    30.01R HX  96

$$

SCZ027-028-034-036>038-045-046-048>050-GAZ119-141-212300-
...LAKE AND SUPPLEMENTAL COASTAL OBSERVATIONS...

STATION/POSITION TIME  TEMP    WIND        PRES    WAVE   SWELL
                       AIR SEA DIR/SP/G            HT/PER HT/PER/DIR
                 (UTC) (F)     (DEG/KT/KT) (MB)    (FT/S) (FT/S/D)
WINYAH BAY       2145   86     190/ 11     1015.0F
LAKE MURRAY      2220   86     180/  5/  9 1013.9
ACE BASIN NERRS  2130   87     170/  1     1016.0S
FORT PULASKI     2200   85 86  180/  8/ 12 1016.4
SAPELO ISLAND    2200   88     160/ 11     1016.0

$$

ANZ835-935-AMZ111-154-330-350-352-354-370-450-454-472-212300-
...C-MAN AND BUOY OBSERVATIONS...

STATION/POSITION TIME  TEMP    WIND        PRES    WAVE   SWELL
                       AIR SEA DIR/SP/G            HT/PER HT/PER/DIR
                 (UTC) (F)     (DEG/KT/KT) (MB)    (FT/S) (FT/S/D)
BUOY 41004       2210   83 84  210/ 10/ 14 1015.9
BUOY 41008       2150   83 83  170/ 12/ 14 1015.8S   2/ 8   2/120/ 8
FOLLY BEACH CMAN 2200   83     180/ 13/ 15 1016.5F
CAPERS NEARSHORE 2208   82 84  210/ 12/ 17 1015.5F
FRIPP NEARSHORE  2208   84 85  190/ 14/ 17 1015.5R


STATION/POSITION TIME  TEMP    WIND        PRES    WAVE   SWELL
                       AIR SEA DIR/SP/G            HT/PER HT/PER/DIR
                 (UTC) (F)     (DEG/KT/KT) (MB)    (FT/S) (FT/S/D)
5E ST. MARYS GA  2200      83                N/A     2/ 8
FRYING PAN BUOY  2210   83 84  220/ 14/ 16 1015.6
BUOY 41025       2150   83 85  230/ 16/ 19 1014.9S   4/ 4   2/150/ 7
CAPE LOOKOUT NC  2200   83     210/ 11/ 15 1015.0S
BUOY 41002       2150   83 84  200/ 10/ 12 1017.5F   4/ 9   3/100/ 9
BUOY 41010       2210   83 85  210/ 10/ 12 1017.4
ST AUGUSTINE FL  2200   82 84  170/ 15/ 16 1016.7F


$$




USA.gov is the U.S. government's official web portal to all federal, state and local government web resources and services.